Current weather by "City, St" or "zip code"  
 

Current Conditions: Nogales, Nogales International Airport, AZ

Fair


88.0 F

Last Updated on Sep 18 2020, 9:54 am MST
Humidity: 20%
Wind Speed: SE 11.5 mph
Barometer 30.17 in
Dewpoint: 42.1 F
Visibility: 10.00 mi
Precip: --
Heat Index: 85 F
Wind Chill: NA
Current conditions at:

Nogales, Nogales International Airport, AZ (KOLS)

Lat: 31.42083 Lon: 110.84583

Local Radar Image active severe weather and emergency alerts image image weather storm and storm spotter reports image weather observation monitoring service image
Local
Radar
Active
Alerts
Storm Reports Obs
Monitoring

Sign-up For Email & Text Message Weather Alert Notification Services



Advertise Here

Observation History for Nogales, Nogales International Airport, AZ


Time Wind
(mph)
Vis
(mi)
Weather Precip (in) Temperature (F) Relative
Humidity
Wind
Chill
(F)
Heat
Index
(F)
Pressure
Air Dwpt altimeter
(in)
sea level
(mb)
Rmks
9:54 am MST SE 11.5 10.00 Fair -- 88.0 42.1 20% NA 85 30.17 1013.6
8:54 am MST W 3.5 10.00 Fair -- 79.0 44.1 29% NA NA 30.17 1014.6
7:54 am MST S 3.5 10.00 Fair -- 73.0 42.1 33% NA NA 30.17 1014.5
6:54 am MST NW 3.5 10.00 Fair -- 62.0 41.0 46% NA NA 30.15 1014.6
5:54 am MST N 0.0 10.00 Fair -- 63.0 39.9 43% NA NA 30.13 1013.6
4:54 am MST N 0.0 10.00 Fair -- 64.0 39.9 41% NA NA 30.13 1013.1
3:54 am MST N 0.0 10.00 Fair -- 66.0 39.9 39% NA NA 30.13 1012.7
2:54 am MST NE 5.8 10.00 Fair -- 68.0 39.9 36% NA NA 30.13 1012.5
1:54 am MST NE 8.1 10.00 Fair -- 70.0 39.9 34% NA NA 30.13 1012.4
12:54 am MST NE 6.9 10.00 Fair -- 73.0 39.9 30% NA NA 30.13 1012.3
11:54 pm MST E 3.5 10.00 Fair -- 75.0 39.9 28% NA NA 30.13 1012.2
10:54 pm MST E 9.2 10.00 Fair -- 81.0 39.9 23% NA 79 30.12 1011.6
9:54 pm MST E 11.5 10.00 Fair -- 82.0 39.9 22% NA 80 30.11 1011.5
8:54 pm MST E 4.6 10.00 Fair -- 79.0 37.9 23% NA NA 30.10 1011.9
7:54 pm MST E 3.5 10.00 Fair -- 83.0 37.9 20% NA 81 30.09 1011.8
6:54 pm MST NE 11.5 10.00 Fair -- 86.0 33.1 15% NA 83 30.07 1011.5
5:54 pm MST NE 10.4 G 20.7 10.00 Fair -- 90.0 33.1 13% NA 86 30.06 1011.3
4:54 pm MST NE 11.5 10.00 Fair -- 94.0 39.0 15% NA 90 30.05 1010.6
3:54 pm MST NE 8.1 10.00 Fair -- 96.0 36.0 12% NA 91 30.07 1010.8
2:54 pm MST NE 9.2 G 20.7 10.00 Fair -- 96.0 33.1 11% NA 91 30.08 1011.1
1:54 pm MST N 12.7 G 18.4 10.00 Fair -- 97.0 36.0 12% NA 92 30.09 1011.5
12:54 pm MST N 12.7 G 17.3 10.00 Fair -- 97.0 37.0 12% NA 92 30.12 1011.8
11:54 am MST SW 5.8 10.00 Fair -- 94.0 41.0 16% NA 90 30.14 1012.8
10:54 am MST E 9.2 10.00 Fair -- 93.0 37.9 14% NA 89 30.16 1013.2

Regional Weather Observation


Pioneer Airfield, AZ (KALK)

Fair
82.0 F

Fort Huachuca, Libby AAF Ft Huachuca, AZ (KFHU)

Fair
83.0 F

Tucson, Tucson International Airport, AZ (KTUS)

Fair
92.0 F

Tucson Ryan Field Airport, AZ (KRYN)

Fair
91.0 F

Davis-Monthan Air Force Base, AZ (KDMA)

A Few Clouds
91.0 F

Casa Grande, Casa Grande Municipal Airport, AZ (KCGZ)

Fair
93.0 F